Weather History for Fremont, NE

Change the Weather History Date:

Monday, March 11, 2013

  Actual Average Record
Temperature  
Mean Temperature 25 °F -  
Max Temperature 32 °F 50 °F 76 °F (1972)
Min Temperature 18 °F 28 °F -5 °F (1998)
Degree Days  
Heating Degree Days 40    
Moisture  
Dew Point 19 °F    
Average Humidity 81    
Maximum Humidity 93    
Minimum Humidity 63    
Precipitation  
Precipitation 0.01 in - - ()
Sea Level Pressure  
Sea Level Pressure 29.92 in    
Wind  
Wind Speed 13 mph (WNW)    
Max Wind Speed 22 mph    
Max Gust Speed 28 mph    
Visibility 10 miles    
Events Snow    
Averages and records for this station are not official NWS values.
T = Trace of Precipitation, MM = Missing Value Source: NWS Daily Summary

Daily Weather History Graph

Daily Weather History Graph

Search for Another Location

Airport:

Trip Planner

Search our weather history database for the weather conditions in past years. The results will help you decide how hot, cold, wet, or windy it might be!

Date:

Astronomy

Mar. 11, 2013 Rise Set
Actual Time 7:44 AM CDT 7:28 PM CDT
Civil Twilight 7:16 AM CDT 7:56 PM CDT
Nautical Twilight 6:44 AM CDT 8:28 PM CDT
Astronomical Twilight 6:12 AM CDT 9:00 PM CDT
Moon 7:18 AM CDT (3/11) 7:42 PM CDT (3/11)
Length of Visible Light 12h 39m
Length of Day
11h 44m
Waning Crescent, 0% of the Moon is Illuminated
Mar 11
Waning Crescent
Mar 11
New
Mar 19
First Quarter
Mar 27
Full
Apr 2
Last Quarter

Hourly Weather History & Observations

Time (CDT) Temp. Windchill Dew Point Humidity Pressure Visibility Wind Dir Wind Speed Gust Speed Precip Events Conditions
12:15 AM 23.7 °F 11.0 °F 21.2 °F 90% 29.96 in 10.0 mi NW 15.0 mph 19.6 mph N/A   Overcast
12:35 AM 23.9 °F 11.2 °F 21.2 °F 89% 29.96 in 10.0 mi NW 15.0 mph 20.7 mph N/A   Overcast
12:55 AM 23.9 °F 11.2 °F 21.0 °F 89% 29.95 in 10.0 mi NW 15.0 mph 23.0 mph N/A   Overcast
1:15 AM 23.5 °F 11.3 °F 20.3 °F 87% 29.94 in 10.0 mi NW 13.8 mph 20.7 mph N/A   Overcast
1:35 AM 23.2 °F 9.8 °F 20.1 °F 88% 29.95 in 10.0 mi WNW 16.1 mph 19.6 mph N/A   Overcast
1:55 AM 22.8 °F 9.4 °F 20.1 °F 89% 29.94 in 10.0 mi WNW 16.1 mph 21.9 mph N/A   Overcast
2:15 AM 22.5 °F 8.0 °F 19.8 °F 89% 29.94 in 10.0 mi NW 18.4 mph - N/A   Overcast
2:35 AM 22.1 °F 8.0 °F 19.4 °F 89% 29.94 in 10.0 mi NW 17.3 mph - N/A   Overcast
2:55 AM 22.1 °F 8.9 °F 19.4 °F 89% 29.93 in 10.0 mi NW 15.0 mph - N/A   Overcast
3:15 AM 21.9 °F 7.8 °F 19.2 °F 89% 29.92 in 10.0 mi NW 17.3 mph 21.9 mph N/A   Overcast
3:35 AM 21.7 °F 7.1 °F 18.9 °F 89% 29.92 in 10.0 mi NW 18.4 mph - N/A   Overcast
3:55 AM 21.4 °F 5.5 °F 18.9 °F 90% 29.92 in 7.0 mi NW 21.9 mph 27.6 mph N/A   Overcast
4:15 AM 21.2 °F 5.2 °F 18.5 °F 89% 29.92 in 10.0 mi NW 21.9 mph 25.3 mph N/A   Overcast
4:35 AM 21.2 °F 5.6 °F 18.3 °F 89% 29.91 in 10.0 mi NW 20.7 mph 26.5 mph N/A   Overcast
4:55 AM 21.2 °F 6.4 °F 18.1 °F 88% 29.91 in 10.0 mi NW 18.4 mph - N/A   Overcast
5:15 AM 21.2 °F 8.3 °F 18.1 °F 88% 29.90 in 10.0 mi NW 13.8 mph - N/A   Overcast
5:35 AM 21.6 °F 7.8 °F 18.3 °F 87% 29.91 in 10.0 mi NW 16.1 mph - N/A   Overcast
5:55 AM 21.4 °F 7.1 °F 18.1 °F 87% 29.91 in 10.0 mi NW 17.3 mph 23.0 mph N/A   Overcast
6:15 AM 21.2 °F 6.4 °F 17.6 °F 86% 29.90 in 10.0 mi NW 18.4 mph - N/A   Overcast
6:35 AM 21.2 °F 7.3 °F 17.6 °F 86% 29.90 in 10.0 mi NW 16.1 mph - N/A   Overcast
6:55 AM 21.2 °F 7.3 °F 17.8 °F 87% 29.90 in 10.0 mi NW 16.1 mph - N/A   Overcast
7:15 AM 21.2 °F 6.4 °F 17.6 °F 86% 29.91 in 10.0 mi WNW 18.4 mph - N/A   Overcast
7:35 AM 21.2 °F 6.4 °F 17.6 °F 86% 29.91 in 10.0 mi NW 18.4 mph - N/A   Overcast
7:55 AM 21.2 °F 6.4 °F 17.6 °F 86% 29.92 in 10.0 mi NW 18.4 mph - N/A   Overcast
8:15 AM 21.2 °F 6.0 °F 17.4 °F 85% 29.92 in 10.0 mi NW 19.6 mph 23.0 mph N/A   Overcast
8:35 AM 21.2 °F 8.3 °F 17.6 °F 86% 29.93 in 10.0 mi NW 13.8 mph - N/A   Overcast
8:55 AM 21.2 °F 7.8 °F 17.4 °F 85% 29.93 in 7.0 mi NW 15.0 mph - N/A Snow Light Snow
9:15 AM 21.7 °F 10.2 °F 17.6 °F 84% 29.93 in 7.0 mi NW 11.5 mph - N/A Snow Light Snow
9:35 AM 21.7 °F 9.0 °F 17.4 °F 83% 29.93 in 10.0 mi NW 13.8 mph - N/A   Overcast
9:55 AM 22.1 °F 10.0 °F 17.4 °F 82% 29.93 in 10.0 mi NW 12.7 mph - N/A   Overcast
10:15 AM 22.1 °F 11.3 °F 17.6 °F 83% 29.93 in 10.0 mi WNW 10.4 mph - N/A   Scattered Clouds
10:35 AM 23.0 °F 11.7 °F 18.0 °F 81% 29.94 in 10.0 mi WNW 11.5 mph - N/A   Clear
10:55 AM 22.8 °F 11.5 °F 17.6 °F 80% 29.94 in 10.0 mi WNW 11.5 mph - N/A   Clear
11:15 AM 23.4 °F 12.8 °F 18.3 °F 81% 29.94 in 10.0 mi WNW 10.4 mph - N/A   Clear
11:35 AM 23.7 °F 12.6 °F 18.7 °F 81% 29.93 in 10.0 mi West 11.5 mph - N/A   Clear
11:55 AM 24.4 °F 13.5 °F 18.9 °F 79% 29.93 in 10.0 mi West 11.5 mph - N/A   Clear
12:15 PM 24.8 °F 12.4 °F 19.6 °F 81% 29.93 in 10.0 mi West 15.0 mph - N/A   Clear
12:35 PM 24.4 °F 11.0 °F 19.4 °F 81% 29.93 in 10.0 mi West 17.3 mph - N/A   Clear
12:55 PM 24.4 °F 12.4 °F 19.4 °F 81% 29.92 in 10.0 mi West 13.8 mph - N/A   Clear
1:15 PM 25.3 °F 13.6 °F 19.4 °F 78% 29.92 in 10.0 mi West 13.8 mph - N/A   Clear
1:35 PM 26.4 °F 15.5 °F 20.3 °F 78% 29.91 in 10.0 mi West 12.7 mph - N/A   Clear
1:55 PM 26.6 °F 15.7 °F 20.8 °F 79% 29.89 in 10.0 mi West 12.7 mph - N/A   Clear
2:15 PM 27.5 °F 16.3 °F 21.2 °F 77% 29.89 in 10.0 mi West 13.8 mph - N/A   Clear
2:35 PM 28.0 °F 16.5 °F 21.0 °F 75% 29.89 in 10.0 mi West 15.0 mph - N/A   Clear
2:55 PM 28.2 °F 16.8 °F 20.1 °F 72% 29.89 in 10.0 mi West 15.0 mph - N/A   Clear
3:15 PM 29.1 °F 20.0 °F 20.3 °F 70% 29.89 in 10.0 mi West 10.4 mph - N/A   Clear
3:35 PM 29.7 °F 20.7 °F 20.5 °F 69% 29.89 in 10.0 mi West 10.4 mph - N/A   Clear
3:55 PM 30.2 °F 20.8 °F 20.5 °F 67% 29.88 in 10.0 mi West 11.5 mph - N/A   Clear
4:15 PM 30.7 °F 22.6 °F 20.3 °F 65% 29.89 in 10.0 mi West 9.2 mph - N/A   Clear
4:35 PM 31.5 °F 25.8 °F 20.3 °F 63% 29.88 in 10.0 mi West 5.8 mph - 0.01 in   Clear
4:55 PM 31.8 °F 25.4 °F 20.5 °F 63% 29.88 in 10.0 mi West 6.9 mph - 0.01 in   Clear
5:15 PM 31.8 °F 26.2 °F 21.2 °F 65% 29.89 in 10.0 mi WNW 5.8 mph - N/A   Mostly Cloudy
5:35 PM 32.2 °F 27.7 °F 21.0 °F 63% 29.88 in 10.0 mi WNW 4.6 mph - N/A   Mostly Cloudy
5:55 PM 32.0 °F 28.7 °F 21.6 °F 65% 29.88 in 10.0 mi NW 3.5 mph - N/A   Clear
6:15 PM 32.4 °F - 21.0 °F 63% 29.89 in 10.0 mi Calm Calm - N/A   Clear
6:35 PM 31.6 °F - 20.5 °F 63% 29.89 in 10.0 mi Calm Calm - N/A   Clear
6:55 PM 30.9 °F 25.2 °F 20.8 °F 66% 29.91 in 10.0 mi SSW 5.8 mph - N/A   Clear
7:15 PM 29.5 °F 25.9 °F 20.8 °F 70% 29.91 in 10.0 mi South 3.5 mph - N/A   Clear
7:35 PM 29.3 °F 25.6 °F 21.0 °F 71% 29.92 in 10.0 mi SSW 3.5 mph - N/A   Clear
7:55 PM 28.4 °F - 20.8 °F 73% 29.93 in 10.0 mi Calm Calm - N/A   Clear
8:15 PM 27.5 °F - 20.7 °F 75% 29.93 in 10.0 mi Calm Calm - N/A   Clear
8:35 PM 26.6 °F - 20.1 °F 77% 29.94 in 10.0 mi Calm Calm - N/A   Clear
8:55 PM 25.5 °F - 20.5 °F 81% 29.94 in 10.0 mi Calm Calm - N/A   Clear
9:35 PM 25.3 °F - 21.2 °F 84% 29.94 in 10.0 mi Calm Calm - N/A   Clear
9:55 PM 24.8 °F - 19.0 °F 79% 29.96 in 10.0 mi Calm Calm - N/A   Clear
10:15 PM 22.3 °F - 18.0 °F 83% 29.96 in 10.0 mi Calm Calm - N/A   Clear
10:35 PM 18.9 °F - 16.9 °F 92% 29.97 in 10.0 mi Calm Calm - N/A   Clear
10:55 PM 18.5 °F 13.3 °F 16.5 °F 92% 29.98 in 10.0 mi West 3.5 mph - N/A   Clear
11:15 PM 19.4 °F 14.3 °F 17.6 °F 93% 29.99 in 10.0 mi West 3.5 mph - N/A   Clear
11:35 PM 19.8 °F - 17.4 °F 91% 29.99 in 10.0 mi Calm Calm - N/A   Clear
11:55 PM 18.0 °F 12.7 °F 16.0 °F 92% 30.00 in 10.0 mi NW 3.5 mph - N/A   Clear